Volver al catálogo

GONETS M 03

ActivoComunicacionesPO
NORAD 38734·PAYLOAD·🇷🇺 Russia

Lanzado Jul 28, 2012 desde Plesetsk Cosmodrome

Loading…

Próximos Pases (próximas 24 horas)

TLE

ActualizadoSource: Space-Track

Época: Sep 14, 2026, 22:04 UTC

1 38734U 12041B   26257.91984573 -.00000014  00000-0 -17096-3 0  9994
2 38734  82.4808   8.5953 0016220 222.0850 137.8986 12.44904905641839

Sigue GONETS M 03 en tiempo real con AllMySat

Download on the App Store